Time,TemperatureF,DewpointF,PressureIn,WindDirection,WindDirectionDegrees,WindSpeedMPH,WindSpeedGustMPH,Humidity,HourlyPrecipIn,Conditions,Clouds,dailyrainin,SoftwareType,DateUTC
2013-03-24 00:04:00,27.9,22.0,29.99,ENE,61,0.0,-999.0,78,-99.99,,,0.00,weatherlink.com 1.10,2013-03-24 04:04:00,
2013-03-24 00:19:00,27.9,22.0,29.98,East,80,1.0,-999.0,77,-99.99,,,0.00,weatherlink.com 1.10,2013-03-24 04:19:00,
2013-03-24 00:34:00,27.6,22.0,29.97,ENE,58,0.0,-999.0,78,-99.99,,,0.00,weatherlink.com 1.10,2013-03-24 04:34:00,
2013-03-24 00:49:00,27.6,22.0,29.97,ENE,63,0.0,-999.0,78,-99.99,,,0.00,weatherlink.com 1.10,2013-03-24 04:49:00,
2013-03-24 01:04:00,27.5,22.0,29.97,ENE,63,0.0,-999.0,78,-99.99,,,0.00,weatherlink.com 1.10,2013-03-24 05:04:00,
2013-03-24 01:19:00,27.0,21.0,29.96,ENE,63,0.0,-999.0,79,-99.99,,,0.00,weatherlink.com 1.10,2013-03-24 05:19:00,
2013-03-24 01:34:00,26.9,22.0,29.96,ENE,63,0.0,-999.0,80,-99.99,,,0.00,weatherlink.com 1.10,2013-03-24 05:34:00,
2013-03-24 01:49:00,26.1,21.0,29.96,ENE,63,0.0,-999.0,80,-99.99,,,0.00,weatherlink.com 1.10,2013-03-24 05:49:00,
2013-03-24 02:04:00,26.4,21.0,29.97,ENE,63,0.0,-999.0,81,-99.99,,,0.00,weatherlink.com 1.10,2013-03-24 06:04:00,
2013-03-24 02:19:00,26.4,21.0,29.97,ENE,63,0.0,-999.0,81,-99.99,,,0.00,weatherlink.com 1.10,2013-03-24 06:19:00,
2013-03-24 02:34:00,26.6,22.0,29.97,ENE,63,1.0,-999.0,82,-99.99,,,0.00,weatherlink.com 1.10,2013-03-24 06:34:00,
2013-03-24 02:49:00,26.3,22.0,29.96,ENE,63,0.0,-999.0,82,-99.99,,,0.00,weatherlink.com 1.10,2013-03-24 06:49:00,
2013-03-24 03:04:00,26.3,22.0,29.96,ENE,63,0.0,-999.0,83,-99.99,,,0.00,weatherlink.com 1.10,2013-03-24 07:04:00,
2013-03-24 03:19:00,26.0,22.0,29.96,ENE,63,0.0,-999.0,83,-99.99,,,0.00,weatherlink.com 1.10,2013-03-24 07:19:00,
2013-03-24 03:34:00,25.7,21.0,29.96,ENE,63,0.0,-999.0,83,-99.99,,,0.00,weatherlink.com 1.10,2013-03-24 07:34:00,
2013-03-24 03:49:00,25.8,22.0,29.96,ENE,63,0.0,-999.0,84,-99.99,,,0.00,weatherlink.com 1.10,2013-03-24 07:49:00,
2013-03-24 04:04:00,26.6,22.0,29.96,ENE,63,2.0,-999.0,84,-99.99,,,0.00,weatherlink.com 1.10,2013-03-24 08:04:00,
2013-03-24 04:19:00,26.6,22.0,29.96,ENE,63,0.0,-999.0,84,-99.99,,,0.00,weatherlink.com 1.10,2013-03-24 08:19:00,
2013-03-24 04:34:00,26.4,22.0,29.96,ENE,63,0.0,-999.0,84,-99.99,,,0.00,weatherlink.com 1.10,2013-03-24 08:34:00,
2013-03-24 04:49:00,26.6,22.0,29.95,ENE,63,0.0,-999.0,84,-99.99,,,0.00,weatherlink.com 1.10,2013-03-24 08:49:00,
2013-03-24 05:04:00,26.6,22.0,29.94,ENE,62,0.0,-999.0,84,-99.99,,,0.00,weatherlink.com 1.10,2013-03-24 09:04:00,
2013-03-24 05:19:00,26.6,22.0,29.93,NE,51,1.0,-999.0,84,-99.99,,,0.00,weatherlink.com 1.10,2013-03-24 09:19:00,
2013-03-24 05:34:00,26.4,22.0,29.92,ENE,61,0.0,-999.0,84,-99.99,,,0.00,weatherlink.com 1.10,2013-03-24 09:34:00,
2013-03-24 05:49:00,26.3,22.0,29.94,ENE,61,0.0,-999.0,85,-99.99,,,0.00,weatherlink.com 1.10,2013-03-24 09:49:00,
2013-03-24 06:04:00,26.4,23.0,29.94,ENE,61,0.0,-999.0,85,-99.99,,,0.00,weatherlink.com 1.10,2013-03-24 10:04:00,
2013-03-24 06:19:00,26.3,22.0,29.94,ENE,61,0.0,-999.0,85,-99.99,,,0.00,weatherlink.com 1.10,2013-03-24 10:19:00,
2013-03-24 06:34:00,26.0,22.0,29.94,ENE,61,0.0,-999.0,85,-99.99,,,0.00,weatherlink.com 1.10,2013-03-24 10:34:00,
2013-03-24 06:49:00,26.3,23.0,29.94,ENE,61,1.0,-999.0,86,-99.99,,,0.00,weatherlink.com 1.10,2013-03-24 10:49:00,
2013-03-24 07:04:00,26.6,23.0,29.93,NNE,29,4.0,-999.0,86,-99.99,,,0.00,weatherlink.com 1.10,2013-03-24 11:04:00,
2013-03-24 07:19:00,26.6,23.0,29.93,NE,55,1.0,-999.0,86,-99.99,,,0.00,weatherlink.com 1.10,2013-03-24 11:19:00,
2013-03-24 07:34:00,26.6,23.0,29.92,ENE,60,0.0,-999.0,87,-99.99,,,0.00,weatherlink.com 1.10,2013-03-24 11:34:00,
2013-03-24 07:49:00,26.7,23.0,29.92,ENE,69,1.0,-999.0,87,-99.99,,,0.00,weatherlink.com 1.10,2013-03-24 11:49:00,
2013-03-24 08:04:00,26.9,24.0,29.93,ENE,69,0.0,-999.0,87,-99.99,,,0.00,weatherlink.com 1.10,2013-03-24 12:04:00,
2013-03-24 08:19:00,27.0,24.0,29.93,NE,49,1.0,-999.0,87,-99.99,,,0.00,weatherlink.com 1.10,2013-03-24 12:19:00,
2013-03-24 08:34:00,27.5,24.0,29.93,ENE,69,3.0,-999.0,87,-99.99,,,0.00,weatherlink.com 1.10,2013-03-24 12:34:00,
2013-03-24 08:49:00,27.8,24.0,29.92,NE,56,6.0,-999.0,87,-99.99,,,0.00,weatherlink.com 1.10,2013-03-24 12:49:00,
2013-03-24 09:04:00,27.9,24.0,29.91,East,83,4.0,-999.0,86,-99.99,,,0.00,weatherlink.com 1.10,2013-03-24 13:04:00,
2013-03-24 09:19:00,28.1,24.0,29.91,East,94,4.0,-999.0,85,-99.99,,,0.00,weatherlink.com 1.10,2013-03-24 13:19:00,
2013-03-24 09:34:00,28.4,25.0,29.90,East,89,5.0,-999.0,85,-99.99,,,0.00,weatherlink.com 1.10,2013-03-24 13:34:00,
2013-03-24 09:49:00,28.5,25.0,29.89,NE,54,4.0,-999.0,85,-99.99,,,0.00,weatherlink.com 1.10,2013-03-24 13:49:00,
2013-03-24 10:04:00,29.0,25.0,29.88,East,80,9.0,-999.0,84,-99.99,,,0.00,weatherlink.com 1.10,2013-03-24 14:04:00,
2013-03-24 10:19:00,29.3,24.0,29.86,ESE,111,10.0,-999.0,82,-99.99,,,0.00,weatherlink.com 1.10,2013-03-24 14:19:00,
2013-03-24 10:34:00,29.4,24.0,29.85,East,88,7.0,-999.0,79,-99.99,,,0.00,weatherlink.com 1.10,2013-03-24 14:34:00,
2013-03-24 10:49:00,29.7,24.0,29.87,ENE,70,5.0,-999.0,78,-99.99,,,0.00,weatherlink.com 1.10,2013-03-24 14:49:00,
2013-03-24 11:04:00,30.0,24.0,29.87,East,89,6.0,-999.0,77,-99.99,,,0.00,weatherlink.com 1.10,2013-03-24 15:04:00,
2013-03-24 11:19:00,30.7,24.0,29.86,ENE,64,5.0,-999.0,75,-99.99,,,0.00,weatherlink.com 1.10,2013-03-24 15:19:00,
2013-03-24 11:34:00,31.2,23.0,29.84,East,82,6.0,-999.0,73,-99.99,,,0.00,weatherlink.com 1.10,2013-03-24 15:34:00,
2013-03-24 11:49:00,31.8,24.0,29.83,NE,53,7.0,-999.0,73,-99.99,,,0.00,weatherlink.com 1.10,2013-03-24 15:49:00,
2013-03-24 12:04:00,32.4,24.0,29.82,ENE,67,6.0,-999.0,71,-99.99,,,0.00,weatherlink.com 1.10,2013-03-24 16:04:00,
2013-03-24 12:19:00,32.7,23.0,29.82,ENE,69,10.0,-999.0,67,-99.99,,,0.00,weatherlink.com 1.10,2013-03-24 16:19:00,
2013-03-24 12:34:00,32.8,23.0,29.82,East,90,7.0,-999.0,66,-99.99,,,0.00,weatherlink.com 1.10,2013-03-24 16:34:00,
2013-03-24 12:49:00,33.4,23.0,29.80,East,95,6.0,-999.0,67,-99.99,,,0.00,weatherlink.com 1.10,2013-03-24 16:49:00,
2013-03-24 13:04:00,33.8,24.0,29.80,ESE,111,10.0,-999.0,68,-99.99,,,0.00,weatherlink.com 1.10,2013-03-24 17:04:00,
2013-03-24 13:19:00,34.0,24.0,29.79,NE,47,9.0,-999.0,67,-99.99,,,0.00,weatherlink.com 1.10,2013-03-24 17:19:00,
2013-03-24 13:34:00,34.3,24.0,29.77,NE,48,10.0,-999.0,66,-99.99,,,0.00,weatherlink.com 1.10,2013-03-24 17:34:00,
2013-03-24 13:49:00,34.4,24.0,29.75,East,81,10.0,-999.0,65,-99.99,,,0.00,weatherlink.com 1.10,2013-03-24 17:49:00,
2013-03-24 14:04:00,34.7,24.0,29.75,East,80,7.0,-999.0,64,-99.99,,,0.00,weatherlink.com 1.10,2013-03-24 18:04:00,
2013-03-24 14:19:00,34.6,23.0,29.75,ENE,64,10.0,-999.0,62,-99.99,,,0.00,weatherlink.com 1.10,2013-03-24 18:19:00,
2013-03-24 14:34:00,34.6,22.0,29.74,East,96,10.0,-999.0,61,-99.99,,,0.00,weatherlink.com 1.10,2013-03-24 18:34:00,
2013-03-24 14:49:00,34.9,22.0,29.74,East,84,12.0,-999.0,59,-99.99,,,0.00,weatherlink.com 1.10,2013-03-24 18:49:00,
2013-03-24 15:04:00,35.0,21.0,29.73,ENE,59,7.0,-999.0,58,-99.99,,,0.00,weatherlink.com 1.10,2013-03-24 19:04:00,
2013-03-24 15:19:00,35.2,22.0,29.73,ENE,71,6.0,-999.0,59,-99.99,,,0.00,weatherlink.com 1.10,2013-03-24 19:19:00,
2013-03-24 15:34:00,35.3,22.0,29.72,ENE,62,6.0,-999.0,58,-99.99,,,0.00,weatherlink.com 1.10,2013-03-24 19:34:00,
2013-03-24 15:49:00,35.5,22.0,29.71,East,88,7.0,-999.0,59,-99.99,,,0.00,weatherlink.com 1.10,2013-03-24 19:49:00,
2013-03-24 16:04:00,35.5,23.0,29.70,ENE,78,4.0,-999.0,61,-99.99,,,0.00,weatherlink.com 1.10,2013-03-24 20:04:00,
2013-03-24 16:19:00,35.0,25.0,29.69,ENE,61,6.0,-999.0,66,-99.99,,,0.00,weatherlink.com 1.10,2013-03-24 20:19:00,
2013-03-24 16:34:00,34.6,25.0,29.68,ENE,58,7.0,-999.0,69,-99.99,,,0.00,weatherlink.com 1.10,2013-03-24 20:34:00,
2013-03-24 16:49:00,34.6,25.0,29.68,ENE,57,10.0,-999.0,69,-99.99,,,0.00,weatherlink.com 1.10,2013-03-24 20:49:00,
2013-03-24 17:04:00,34.4,26.0,29.67,East,79,6.0,-999.0,71,-99.99,,,0.00,weatherlink.com 1.10,2013-03-24 21:04:00,
2013-03-24 17:19:00,34.6,25.0,29.66,East,86,15.0,-999.0,69,-99.99,,,0.00,weatherlink.com 1.10,2013-03-24 21:19:00,
2013-03-24 17:34:00,34.9,25.0,29.65,ENE,61,11.0,-999.0,66,-99.99,,,0.00,weatherlink.com 1.10,2013-03-24 21:34:00,
2013-03-24 17:49:00,34.9,23.0,29.64,ENE,78,13.0,-999.0,63,-99.99,,,0.00,weatherlink.com 1.10,2013-03-24 21:49:00,
2013-03-24 18:04:00,35.0,23.0,29.63,East,88,12.0,-999.0,61,-99.99,,,0.00,weatherlink.com 1.10,2013-03-24 22:04:00,
2013-03-24 18:20:00,34.7,20.0,29.63,ENE,67,7.0,-999.0,55,-99.99,,,0.00,weatherlink.com 1.10,2013-03-24 22:20:00,
2013-03-24 18:34:00,34.0,20.0,29.63,ENE,58,15.0,-999.0,56,-99.99,,,0.00,weatherlink.com 1.10,2013-03-24 22:34:00,
2013-03-24 18:49:00,33.4,19.0,29.62,East,87,10.0,-999.0,55,-99.99,,,0.00,weatherlink.com 1.10,2013-03-24 22:49:00,
2013-03-24 19:04:00,32.8,18.0,29.62,ENE,74,16.0,-999.0,55,-99.99,,,0.00,weatherlink.com 1.10,2013-03-24 23:04:00,
2013-03-24 19:19:00,32.5,19.0,29.62,NNE,24,10.0,-999.0,57,-99.99,,,0.00,weatherlink.com 1.10,2013-03-24 23:19:00,
2013-03-24 19:34:00,32.2,18.0,29.63,East,88,14.0,-999.0,57,-99.99,,,0.00,weatherlink.com 1.10,2013-03-24 23:34:00,
2013-03-24 19:49:00,31.8,20.0,29.61,ENE,75,4.0,-999.0,61,-99.99,,,0.00,weatherlink.com 1.10,2013-03-24 23:49:00,
2013-03-24 20:04:00,31.5,21.0,29.61,East,89,4.0,-999.0,64,-99.99,,,0.00,weatherlink.com 1.10,2013-03-25 00:04:00,
2013-03-24 20:19:00,31.5,21.0,29.61,East,99,5.0,-999.0,65,-99.99,,,0.00,weatherlink.com 1.10,2013-03-25 00:19:00,
2013-03-24 20:34:00,31.3,21.0,29.62,ENE,70,8.0,-999.0,66,-99.99,,,0.00,weatherlink.com 1.10,2013-03-25 00:34:00,
2013-03-24 20:49:00,31.2,21.0,29.62,NNE,13,4.0,-999.0,67,-99.99,,,0.00,weatherlink.com 1.10,2013-03-25 00:49:00,
2013-03-24 21:04:00,31.0,22.0,29.61,ENE,76,5.0,-999.0,68,-99.99,,,0.00,weatherlink.com 1.10,2013-03-25 01:04:00,
2013-03-24 21:19:00,31.0,22.0,29.61,NNE,18,5.0,-999.0,68,-99.99,,,0.00,weatherlink.com 1.10,2013-03-25 01:19:00,
2013-03-24 21:34:00,30.9,22.0,29.61,NE,49,4.0,-999.0,69,-99.99,,,0.00,weatherlink.com 1.10,2013-03-25 01:34:00,
2013-03-24 21:49:00,30.9,22.0,29.60,NE,47,9.0,-999.0,69,-99.99,,,0.00,weatherlink.com 1.10,2013-03-25 01:49:00,
2013-03-24 22:04:00,30.7,22.0,29.59,ENE,65,5.0,-999.0,70,-99.99,,,0.00,weatherlink.com 1.10,2013-03-25 02:04:00,
2013-03-24 22:19:00,30.7,22.0,29.59,ENE,78,3.0,-999.0,71,-99.99,,,0.00,weatherlink.com 1.10,2013-03-25 02:19:00,
2013-03-24 22:34:00,30.9,23.0,29.59,ENE,77,9.0,-999.0,71,-99.99,,,0.00,weatherlink.com 1.10,2013-03-25 02:34:00,
2013-03-24 22:49:00,30.9,23.0,29.59,East,95,6.0,-999.0,71,-99.99,,,0.00,weatherlink.com 1.10,2013-03-25 02:49:00,
2013-03-24 23:04:00,30.9,23.0,29.59,NE,39,3.0,-999.0,72,-99.99,,,0.00,weatherlink.com 1.10,2013-03-25 03:04:00,
2013-03-24 23:19:00,30.9,23.0,29.58,NE,35,2.0,-999.0,72,-99.99,,,0.00,weatherlink.com 1.10,2013-03-25 03:19:00,
2013-03-24 23:34:00,30.9,23.0,29.58,NNE,18,5.0,-999.0,72,-99.99,,,0.00,weatherlink.com 1.10,2013-03-25 03:34:00,
2013-03-24 23:49:00,30.9,23.0,29.57,NNE,19,4.0,-999.0,72,-99.99,,,0.00,weatherlink.com 1.10,2013-03-25 03:49:00,